Location: Pasadena, ca
(34.1243°N, 118.1037°W)
Time: 19:52:55
(UTC-07:00)

Envisat - Pass Details

Date: 10 October 2017
Orbit: 764 x 766 km, 98.2° (Epoch: 21 October)

Event Time Altitude Azimuth Distance (km) Brightness Sun altitude
Exits shadow 19:47:54 19° 45° (NE) 1,763 4.5 -18.1°
Drops below altitude 10° 19:50:15 10° 20° (NNE) 2,306 5.3 -18.6°
Sets 19:53:02 0° 5° (N) 3,236 6.2 -19.2°
